TimeCDT,TemperatureF,Dew PointF,Humidity,Sea Level PressureIn,VisibilityMPH,Wind Direction,Wind SpeedMPH,Gust SpeedMPH,PrecipitationIn,Events,Conditions,WindDirDegrees,DateUTC
12:15 AM,57.6,53.6,87,30.09,10.0,Calm,Calm,-,N/A,,Clear,0,2013-06-19 05:15:00
12:35 AM,58.3,52.5,81,30.09,10.0,Calm,Calm,-,N/A,,Clear,0,2013-06-19 05:35:00
12:55 AM,58.6,52.0,79,30.08,10.0,East,3.5,-,N/A,,Clear,100,2013-06-19 05:55:00
1:15 AM,57.7,51.8,81,30.09,10.0,ESE,4.6,-,N/A,,Clear,110,2013-06-19 06:15:00
1:35 AM,57.7,51.8,81,30.09,10.0,East,3.5,-,N/A,,Scattered Clouds,100,2013-06-19 06:35:00
1:55 AM,58.1,51.8,80,30.09,10.0,Calm,Calm,-,N/A,,Scattered Clouds,0,2013-06-19 06:55:00
2:15 AM,58.1,52.0,80,30.09,10.0,ESE,3.5,-,N/A,,Scattered Clouds,120,2013-06-19 07:15:00
2:35 AM,56.5,51.8,84,30.08,10.0,Calm,Calm,-,N/A,,Scattered Clouds,0,2013-06-19 07:35:00
2:55 AM,57.7,52.2,82,30.08,10.0,SE,5.8,-,N/A,,Scattered Clouds,130,2013-06-19 07:55:00
3:15 AM,57.6,52.7,84,30.07,10.0,ESE,5.8,-,N/A,,Scattered Clouds,120,2013-06-19 08:15:00
3:35 AM,58.3,52.0,80,30.06,10.0,SE,4.6,-,N/A,,Clear,130,2013-06-19 08:35:00
3:55 AM,57.2,52.2,83,30.07,10.0,ESE,5.8,-,N/A,,Clear,120,2013-06-19 08:55:00
4:15 AM,57.6,52.5,83,30.07,10.0,ESE,4.6,-,N/A,,Clear,110,2013-06-19 09:15:00
4:35 AM,58.1,52.7,82,30.08,10.0,East,5.8,-,N/A,,Clear,100,2013-06-19 09:35:00
4:55 AM,57.0,52.7,85,30.09,10.0,ESE,5.8,-,N/A,,Scattered Clouds,120,2013-06-19 09:55:00
5:15 AM,56.1,52.5,88,30.09,10.0,ESE,4.6,-,N/A,,Scattered Clouds,120,2013-06-19 10:15:00
5:35 AM,57.0,52.7,85,30.09,10.0,SE,5.8,-,N/A,,Scattered Clouds,130,2013-06-19 10:35:00
5:55 AM,57.4,52.9,85,30.10,10.0,SSE,4.6,-,N/A,,Clear,150,2013-06-19 10:55:00
6:15 AM,58.5,53.2,83,30.11,10.0,Calm,Calm,-,N/A,,Clear,0,2013-06-19 11:15:00
6:35 AM,60.1,54.0,80,30.11,10.0,Calm,Calm,-,N/A,,Clear,0,2013-06-19 11:35:00
6:55 AM,61.0,54.3,79,30.11,10.0,East,3.5,-,N/A,,Clear,100,2013-06-19 11:55:00
7:15 AM,61.5,54.5,78,30.12,10.0,ESE,3.5,-,N/A,,Clear,120,2013-06-19 12:15:00
7:35 AM,62.6,54.7,75,30.12,10.0,SSE,6.9,-,N/A,,Clear,160,2013-06-19 12:35:00
7:55 AM,63.7,54.9,73,30.11,10.0,SE,8.1,-,N/A,,Clear,140,2013-06-19 12:55:00
8:15 AM,64.9,55.6,72,30.11,10.0,SSE,9.2,-,N/A,,Clear,160,2013-06-19 13:15:00
8:35 AM,66.2,55.9,69,30.11,10.0,SSE,10.4,-,N/A,,Clear,160,2013-06-19 13:35:00
8:55 AM,67.1,56.3,68,30.11,10.0,South,11.5,-,N/A,,Clear,170,2013-06-19 13:55:00
9:15 AM,68.4,56.8,67,30.11,10.0,South,9.2,-,N/A,,Clear,180,2013-06-19 14:15:00
9:35 AM,69.8,57.4,65,30.10,10.0,South,9.2,-,N/A,,Clear,170,2013-06-19 14:35:00
9:55 AM,70.9,58.3,64,30.10,10.0,SSE,9.2,-,N/A,,Clear,150,2013-06-19 14:55:00
10:15 AM,71.8,58.3,62,30.10,10.0,South,8.1,-,N/A,,Clear,190,2013-06-19 15:15:00
10:35 AM,72.5,58.5,61,30.10,10.0,SSE,6.9,-,N/A,,Scattered Clouds,160,2013-06-19 15:35:00
10:55 AM,72.9,58.8,61,30.09,10.0,South,11.5,-,N/A,,Scattered Clouds,180,2013-06-19 15:55:00
11:15 AM,73.4,59.0,61,30.10,10.0,South,8.1,-,N/A,,Clear,190,2013-06-19 16:15:00
11:35 AM,74.3,59.7,60,30.09,10.0,SE,9.2,-,N/A,,Clear,140,2013-06-19 16:35:00
11:55 AM,74.3,58.6,58,30.08,10.0,South,9.2,-,N/A,,Clear,190,2013-06-19 16:55:00
12:15 PM,74.5,59.2,59,30.07,10.0,SSW,6.9,-,N/A,,Clear,200,2013-06-19 17:15:00
12:35 PM,75.2,59.7,58,30.06,10.0,SSE,8.1,-,N/A,,Clear,150,2013-06-19 17:35:00
12:55 PM,76.5,60.3,57,30.06,10.0,SSE,4.6,-,N/A,,Clear,150,2013-06-19 17:55:00
1:15 PM,77.4,60.6,56,30.06,7.0,SSE,10.4,-,N/A,,Clear,150,2013-06-19 18:15:00
1:35 PM,77.9,59.7,53,30.05,10.0,SE,9.2,-,N/A,,Clear,140,2013-06-19 18:35:00
1:55 PM,78.4,59.9,53,30.05,10.0,SSE,8.1,-,N/A,,Scattered Clouds,160,2013-06-19 18:55:00
2:15 PM,79.9,60.4,51,30.05,10.0,SE,8.1,-,N/A,,Scattered Clouds,140,2013-06-19 19:15:00
2:35 PM,78.8,59.7,52,30.04,10.0,ESE,6.9,-,N/A,,Clear,120,2013-06-19 19:35:00
2:55 PM,79.3,59.4,50,30.04,10.0,ESE,9.2,-,N/A,,Scattered Clouds,120,2013-06-19 19:55:00
3:15 PM,79.5,58.3,48,30.04,10.0,SSE,6.9,-,N/A,,Scattered Clouds,150,2013-06-19 20:15:00
3:35 PM,79.0,59.0,50,30.03,10.0,SSE,9.2,-,N/A,,Mostly Cloudy,150,2013-06-19 20:35:00
3:55 PM,78.8,59.2,51,30.03,10.0,SSE,9.2,16.1,N/A,,Mostly Cloudy,150,2013-06-19 20:55:00
4:15 PM,79.9,60.3,51,30.03,10.0,SSE,10.4,-,N/A,,Scattered Clouds,160,2013-06-19 21:15:00
4:35 PM,81.3,60.3,49,30.02,10.0,SSE,9.2,-,N/A,,Mostly Cloudy,150,2013-06-19 21:35:00
4:55 PM,80.6,59.7,49,30.02,10.0,SSE,9.2,-,N/A,,Scattered Clouds,150,2013-06-19 21:55:00
5:15 PM,81.0,59.9,49,30.01,10.0,SSE,11.5,-,N/A,,Scattered Clouds,160,2013-06-19 22:15:00
5:35 PM,80.1,59.9,50,30.01,10.0,SSE,11.5,-,N/A,,Mostly Cloudy,150,2013-06-19 22:35:00
5:55 PM,81.0,59.7,48,30.01,10.0,SE,9.2,-,N/A,,Mostly Cloudy,130,2013-06-19 22:55:00
6:15 PM,80.8,59.7,49,30.01,10.0,SE,9.2,-,N/A,,Scattered Clouds,130,2013-06-19 23:15:00
6:35 PM,80.1,59.5,49,30.00,10.0,SE,9.2,-,N/A,,Clear,130,2013-06-19 23:35:00
6:55 PM,79.9,59.7,50,30.00,10.0,SE,9.2,-,N/A,,Clear,140,2013-06-19 23:55:00
7:15 PM,79.7,58.8,49,30.00,10.0,SE,8.1,-,N/A,,Clear,140,2013-06-20 00:15:00
7:35 PM,79.0,59.2,51,30.00,10.0,SE,9.2,-,N/A,,Clear,140,2013-06-20 00:35:00
7:55 PM,78.1,60.1,54,30.00,10.0,ESE,9.2,-,N/A,,Clear,120,2013-06-20 00:55:00
8:15 PM,76.8,60.8,58,30.00,10.0,SE,6.9,-,N/A,,Clear,130,2013-06-20 01:15:00
8:35 PM,75.7,60.8,60,30.00,10.0,SE,8.1,-,N/A,,Clear,130,2013-06-20 01:35:00
8:55 PM,74.5,60.6,62,30.00,10.0,SE,5.8,-,N/A,,Clear,130,2013-06-20 01:55:00
9:15 PM,73.0,60.8,65,30.00,10.0,SE,5.8,-,N/A,,Clear,130,2013-06-20 02:15:00
9:35 PM,72.5,60.8,67,30.01,10.0,SE,5.8,-,N/A,,Clear,130,2013-06-20 02:35:00
9:55 PM,70.5,61.0,72,30.01,10.0,ESE,6.9,-,N/A,,Clear,120,2013-06-20 02:55:00
10:15 PM,70.0,60.8,73,30.02,10.0,ESE,5.8,-,N/A,,Clear,120,2013-06-20 03:15:00
10:35 PM,70.0,60.8,73,30.02,10.0,ESE,6.9,-,N/A,,Clear,120,2013-06-20 03:35:00
10:55 PM,71.4,60.1,67,30.02,10.0,SE,6.9,-,N/A,,Scattered Clouds,140,2013-06-20 03:55:00
11:15 PM,71.1,60.1,68,30.02,10.0,SE,8.1,-,N/A,,Scattered Clouds,140,2013-06-20 04:15:00
11:35 PM,71.1,59.7,67,30.03,10.0,SE,8.1,-,N/A,,Scattered Clouds,140,2013-06-20 04:35:00
11:55 PM,70.7,59.9,69,30.03,10.0,SE,6.9,-,N/A,,Clear,140,2013-06-20 04:55:00